Hourly Weather Carlisle

Today, 20 September, Sunday

Time Temperature Precipitation Wind Pressure Humidity
00:00 +10°C° 0 mm 3 mps 766 mmHg 93%
01:00 +10°C° 0 mm 2 mps 766 mmHg 92%
02:00 +12°C° 0 mm 2 mps 765 mmHg 91%
03:00 +12°C° 0 mm 2 mps 765 mmHg 90%
04:00 +12°C° 0 mm 2 mps 765 mmHg 91%
05:00 +12°C° 0 mm 2 mps 765 mmHg 92%
06:00 +12°C° 0 mm 2 mps 765 mmHg 92%
07:00 +13°C° 0 mm 2 mps 765 mmHg 89%
08:00 +14°C° 0 mm 2 mps 765 mmHg 86%
09:00 +15°C° 0 mm 2 mps 765 mmHg 84%
10:00 +16°C° 0 mm 3 mps 765 mmHg 81%
11:00 +17°C° 0 mm 3 mps 765 mmHg 78%
12:00 +17°C° 0 mm 3 mps 765 mmHg 75%
13:00 +18°C° 0 mm 3 mps 764 mmHg 74%
14:00 +18°C° 0 mm 2 mps 764 mmHg 74%
15:00 +18°C° 0 mm 2 mps 764 mmHg 73%
16:00 +17°C° 0 mm 2 mps 764 mmHg 79%
17:00 +15°C° 0 mm 2 mps 763 mmHg 84%
18:00 +14°C° 0 mm 2 mps 763 mmHg 90%
19:00 +13°C° 0 mm 2 mps 763 mmHg 91%
20:00 +12°C° 0 mm 2 mps 763 mmHg 92%
21:00 +11°C° 0 mm 1 mps 763 mmHg 93%
22:00 +11°C° 0 mm 1 mps 763 mmHg 93%
23:00 +10°C° 0 mm 1 mps 763 mmHg 93%

Tomorrow, 21 September, Monday

Time Temperature Precipitation Wind Pressure Humidity
00:00 +10°C° 0 mm 1 mps 762 mmHg 92%
01:00 +10°C° 0 mm 1 mps 762 mmHg 93%
02:00 +10°C° 0 mm 1 mps 762 mmHg 93%
03:00 +10°C° 0 mm 1 mps 761 mmHg 93%
04:00 +10°C° 0 mm 1 mps 761 mmHg 93%
05:00 +9°C° 0 mm 1 mps 761 mmHg 94%
06:00 +9°C° 0 mm 1 mps 760 mmHg 94%
07:00 +11°C° 0 mm 1 mps 760 mmHg 92%
08:00 +12°C° 0 mm 1 mps 760 mmHg 90%
09:00 +14°C° 0 mm 2 mps 760 mmHg 88%
10:00 +15°C° 0 mm 2 mps 760 mmHg 85%
11:00 +16°C° 0 mm 3 mps 759 mmHg 82%
12:00 +17°C° 0 mm 4 mps 759 mmHg 78%
13:00 +17°C° 0 mm 4 mps 759 mmHg 79%
14:00 +17°C° 0 mm 4 mps 758 mmHg 80%
15:00 +17°C° 0 mm 4 mps 758 mmHg 80%
16:00 +14°C° 0 mm 4 mps 758 mmHg 84%
17:00 +13°C° 0 mm 3 mps 758 mmHg 88%
18:00 +12°C° 0 mm 3 mps 757 mmHg 93%
19:00 +11°C° 0 mm 3 mps 757 mmHg 93%
20:00 +10°C° 0 mm 2 mps 757 mmHg 93%
21:00 +10°C° 0 mm 2 mps 757 mmHg 94%
22:00 +10°C° 0 mm 2 mps 757 mmHg 94%
23:00 +10°C° 0 mm 2 mps 757 mmHg 94%

Day after tomorrow, 22 September, Tuesday

Time Temperature Precipitation Wind Pressure Humidity
00:00 +10°C° 0 mm 2 mps 756 mmHg 94%
01:00 +10°C° 0 mm 3 mps 756 mmHg 95%
02:00 +11°C° 0 mm 3 mps 755 mmHg 96%
03:00 +11°C° 0 mm 3 mps 754 mmHg 96%
04:00 +12°C° 0 mm 3 mps 754 mmHg 96%
05:00 +12°C° 0 mm 4 mps 753 mmHg 96%
06:00 +13°C° 0 mm 4 mps 753 mmHg 95%
07:00 +13°C° 0 mm 4 mps 752 mmHg 94%
08:00 +14°C° 0 mm 5 mps 752 mmHg 92%
09:00 +15°C° 0 mm 6 mps 751 mmHg 90%
10:00 +15°C° 0 mm 6 mps 750 mmHg 90%
11:00 +15°C° 0 mm 7 mps 750 mmHg 90%
12:00 +16°C° 0 mm 7 mps 750 mmHg 90%
13:00 +15°C° 0 mm 7 mps 749 mmHg 89%
14:00 +15°C° 0 mm 7 mps 748 mmHg 88%
15:00 +15°C° 0 mm 7 mps 748 mmHg 88%
16:00 +15°C° 0 mm 6 mps 748 mmHg 89%
17:00 +14°C° 0 mm 5 mps 748 mmHg 90%
18:00 +13°C° 0 mm 4 mps 747 mmHg 92%
19:00 +13°C° 0.1 mm 3 mps 747 mmHg 93%
20:00 +13°C° 0.1 mm 3 mps 747 mmHg 94%
21:00 +14°C° 0.1 mm 2 mps 747 mmHg 96%
22:00 +13°C° 1.3 mm 3 mps 747 mmHg 96%
23:00 +12°C° 1.3 mm 3 mps 747 mmHg 96%

23 September, Wednesday

Time Temperature Precipitation Wind Pressure Humidity
00:00 +12°C° 1.3 mm 3 mps 747 mmHg 96%
01:00 +11°C° 0.5 mm 3 mps 747 mmHg 95%
02:00 +10°C° 0.5 mm 3 mps 747 mmHg 94%
03:00 +9°C° 0.5 mm 2 mps 747 mmHg 93%
04:00 +9°C° 0 mm 2 mps 747 mmHg 92%
05:00 +8°C° 0 mm 2 mps 747 mmHg 92%
06:00 +8°C° 0 mm 2 mps 748 mmHg 92%
07:00 +8°C° 0 mm 2 mps 748 mmHg 90%
08:00 +9°C° 0 mm 2 mps 748 mmHg 89%
09:00 +9°C° 0 mm 2 mps 748 mmHg 88%
10:00 +9°C° 0.1 mm 2 mps 748 mmHg 88%
11:00 +9°C° 0.1 mm 2 mps 748 mmHg 88%
12:00 +9°C° 0.1 mm 2 mps 748 mmHg 88%
13:00 +9°C° 0.4 mm 2 mps 748 mmHg 89%
14:00 +9°C° 0.4 mm 2 mps 748 mmHg 89%
15:00 +9°C° 0.4 mm 2 mps 748 mmHg 90%
16:00 +9°C° 0.2 mm 2 mps 748 mmHg 90%
17:00 +9°C° 0.2 mm 1 mps 748 mmHg 91%
18:00 +9°C° 0.2 mm 1 mps 747 mmHg 92%
19:00 +9°C° 0.1 mm 1 mps 747 mmHg 91%
20:00 +8°C° 0.1 mm 1 mps 747 mmHg 90%
21:00 +8°C° 0.1 mm 1 mps 747 mmHg 88%
22:00 +7°C° 0 mm 1 mps 747 mmHg 88%
23:00 +7°C° 0 mm 1 mps 747 mmHg 88%

24 September, Thursday

Time Temperature Precipitation Wind Pressure Humidity
00:00 +6°C° 0 mm 1 mps 747 mmHg 88%
01:00 +6°C° 0 mm 1 mps 746 mmHg 89%
02:00 +6°C° 0 mm 1 mps 746 mmHg 89%
03:00 +4°C° 0 mm 2 mps 746 mmHg 89%
04:00 +4°C° 0 mm 2 mps 745 mmHg 90%
05:00 +4°C° 0 mm 2 mps 745 mmHg 90%
06:00 +4°C° 0 mm 2 mps 745 mmHg 90%
07:00 +5°C° 0 mm 3 mps 744 mmHg 88%
08:00 +7°C° 0 mm 3 mps 744 mmHg 86%
09:00 +8°C° 0 mm 4 mps 743 mmHg 84%
10:00 +8°C° 0.7 mm 4 mps 743 mmHg 86%
11:00 +8°C° 0.7 mm 4 mps 742 mmHg 87%
12:00 +8°C° 0.7 mm 4 mps 742 mmHg 89%
13:00 +8°C° 0.7 mm 4 mps 741 mmHg 88%
14:00 +9°C° 0.7 mm 3 mps 741 mmHg 87%
15:00 +9°C° 0.7 mm 2 mps 740 mmHg 86%
16:00 +8°C° 0.1 mm 2 mps 740 mmHg 88%
17:00 +8°C° 0.1 mm 1 mps 740 mmHg 91%
18:00 +7°C° 0.1 mm 1 mps 740 mmHg 93%
19:00 +7°C° 0 mm 1 mps 740 mmHg 94%
20:00 +5°C° 0 mm 2 mps 740 mmHg 94%
21:00 +5°C° 0 mm 2 mps 741 mmHg 95%
22:00 +5°C° 0.1 mm 2 mps 741 mmHg 95%
23:00 +5°C° 0.1 mm 3 mps 742 mmHg 95%

25 September, Friday

Time Temperature Precipitation Wind Pressure Humidity
00:00 +5°C° 0.1 mm 4 mps 742 mmHg 95%
01:00 +5°C° 1.4 mm 5 mps 742 mmHg 95%
02:00 +4°C° 1.4 mm 6 mps 743 mmHg 95%
03:00 +5°C° 1.4 mm 7 mps 743 mmHg 94%
04:00 +5°C° 0.5 mm 6 mps 744 mmHg 93%
05:00 +5°C° 0.5 mm 6 mps 745 mmHg 92%
06:00 +4°C° 0.5 mm 6 mps 745 mmHg 90%
07:00 +5°C° 0.1 mm 6 mps 746 mmHg 89%
08:00 +5°C° 0.1 mm 6 mps 747 mmHg 88%
09:00 +5°C° 0.1 mm 6 mps 748 mmHg 87%
10:00 +7°C° 0.1 mm 6 mps 749 mmHg 82%
11:00 +8°C° 0.1 mm 7 mps 750 mmHg 77%
12:00 +9°C° 0.1 mm 7 mps 751 mmHg 71%
13:00 +10°C° 0.1 mm 7 mps 751 mmHg 69%
14:00 +10°C° 0.1 mm 7 mps 752 mmHg 67%
15:00 +10°C° 0.1 mm 7 mps 753 mmHg 65%
16:00 +9°C° 0 mm 6 mps 753 mmHg 67%
17:00 +8°C° 0 mm 6 mps 753 mmHg 70%
18:00 +7°C° 0 mm 5 mps 754 mmHg 72%
19:00 +6°C° 0 mm 5 mps 754 mmHg 74%
20:00 +6°C° 0 mm 5 mps 755 mmHg 75%
21:00 +5°C° 0 mm 5 mps 755 mmHg 77%
22:00 +5°C° 0 mm 5 mps 755 mmHg 79%
23:00 +3°C° 0 mm 5 mps 755 mmHg 80%
Show more